• In Belgium
  • List of Countries
  • For 7 days
  • Water Temperature
  • Satellite Maps
  • Weather Map
  • Weather Widgets
  • user-avatar
    Login

    Hourly Weather Irvington

    Today, 22 November, Wednesday

    Time Temperature Precipitation Wind Pressure Humidity
    00:00 +8°C° 0 mm 3 mps 757 mmHg 77%
    01:00 +8°C° 0 mm 2 mps 756 mmHg 79%
    02:00 +8°C° 0 mm 2 mps 756 mmHg 81%
    03:00 +8°C° 0 mm 2 mps 755 mmHg 83%
    04:00 +8°C° 0 mm 2 mps 755 mmHg 86%
    05:00 +8°C° 0.2 mm 2 mps 755 mmHg 88%
    06:00 +8°C° 0.2 mm 2 mps 755 mmHg 90%
    07:00 +9°C° 0 mm 1 mps 754 mmHg 93%
    08:00 +9°C° 0.8 mm 2 mps 754 mmHg 91%
    09:00 +9°C° 0.8 mm 2 mps 754 mmHg 90%
    10:00 +9°C° 0.8 mm 3 mps 754 mmHg 89%
    11:00 +10°C° 0.1 mm 4 mps 754 mmHg 79%
    12:00 +9°C° 0.1 mm 5 mps 754 mmHg 70%
    13:00 +10°C° 0.1 mm 6 mps 754 mmHg 60%
    14:00 +8°C° 0 mm 6 mps 754 mmHg 59%
    15:00 +6°C° 0 mm 7 mps 755 mmHg 58%
    16:00 +5°C° 0 mm 7 mps 755 mmHg 57%
    17:00 +4°C° 0 mm 7 mps 756 mmHg 57%
    18:00 +2°C° 0 mm 7 mps 757 mmHg 58%
    19:00 +1°C° 0 mm 6 mps 758 mmHg 58%
    20:00 +1°C° 0 mm 6 mps 758 mmHg 59%
    21:00 -1°C° 0 mm 6 mps 758 mmHg 59%
    22:00 -1°C° 0 mm 5 mps 759 mmHg 60%
    23:00 -1°C° 0 mm 5 mps 759 mmHg 60%

    Tomorrow, 23 November, Thursday

    Time Temperature Precipitation Wind Pressure Humidity
    00:00 -1°C° 0 mm 4 mps 759 mmHg 61%
    01:00 -2°C° 0 mm 4 mps 759 mmHg 62%
    02:00 -2°C° 0 mm 4 mps 759 mmHg 62%
    03:00 -2°C° 0 mm 4 mps 759 mmHg 62%
    04:00 -2°C° 0 mm 4 mps 759 mmHg 62%
    05:00 -1°C° 0 mm 3 mps 759 mmHg 62%
    06:00 -1°C° 0 mm 3 mps 759 mmHg 62%
    07:00 -2°C° 0 mm 3 mps 759 mmHg 62%
    08:00 0°C° 0 mm 3 mps 759 mmHg 56%
    09:00 +1°C° 0 mm 3 mps 759 mmHg 51%
    10:00 +3°C° 0 mm 2 mps 760 mmHg 46%
    11:00 +3°C° 0 mm 3 mps 759 mmHg 42%
    12:00 +4°C° 0 mm 3 mps 758 mmHg 38%
    13:00 +5°C° 0 mm 3 mps 757 mmHg 35%
    14:00 +5°C° 0 mm 3 mps 757 mmHg 36%
    15:00 +6°C° 0 mm 2 mps 757 mmHg 38%
    16:00 +5°C° 0 mm 2 mps 757 mmHg 40%
    17:00 +5°C° 0 mm 2 mps 757 mmHg 42%
    18:00 +3°C° 0 mm 3 mps 757 mmHg 45%
    19:00 +3°C° 0 mm 3 mps 757 mmHg 47%
    20:00 +2°C° 0 mm 3 mps 757 mmHg 49%
    21:00 +2°C° 0 mm 3 mps 757 mmHg 51%
    22:00 +1°C° 0 mm 3 mps 757 mmHg 54%
    23:00 +1°C° 0 mm 3 mps 758 mmHg 55%

    Day after tomorrow, 24 November, Friday

    Time Temperature Precipitation Wind Pressure Humidity
    00:00 +1°C° 0 mm 3 mps 758 mmHg 56%
    01:00 +1°C° 0 mm 3 mps 758 mmHg 57%
    02:00 +1°C° 0 mm 3 mps 758 mmHg 57%
    03:00 +1°C° 0 mm 3 mps 758 mmHg 58%
    04:00 +1°C° 0 mm 2 mps 757 mmHg 58%
    05:00 +1°C° 0 mm 2 mps 758 mmHg 59%
    06:00 +1°C° 0 mm 2 mps 758 mmHg 59%
    07:00 +1°C° 0 mm 2 mps 758 mmHg 60%
    08:00 +3°C° 0 mm 2 mps 758 mmHg 55%
    09:00 +4°C° 0 mm 2 mps 758 mmHg 50%
    10:00 +6°C° 0 mm 2 mps 758 mmHg 45%
    11:00 +7°C° 0 mm 2 mps 758 mmHg 43%
    12:00 +8°C° 0 mm 3 mps 757 mmHg 41%
    13:00 +9°C° 0 mm 3 mps 756 mmHg 39%
    14:00 +9°C° 0 mm 3 mps 756 mmHg 41%
    15:00 +9°C° 0 mm 3 mps 756 mmHg 44%
    16:00 +8°C° 0 mm 3 mps 756 mmHg 46%
    17:00 +7°C° 0 mm 3 mps 756 mmHg 49%
    18:00 +5°C° 0 mm 3 mps 756 mmHg 52%
    19:00 +5°C° 0 mm 3 mps 756 mmHg 55%
    20:00 +4°C° 0 mm 4 mps 756 mmHg 59%
    21:00 +4°C° 0 mm 4 mps 756 mmHg 63%
    22:00 +4°C° 0 mm 4 mps 755 mmHg 68%
    23:00 +4°C° 0 mm 4 mps 755 mmHg 69%

    25 November, Saturday

    Time Temperature Precipitation Wind Pressure Humidity
    00:00 +4°C° 0 mm 4 mps 754 mmHg 71%
    01:00 +4°C° 0 mm 4 mps 754 mmHg 72%
    02:00 +4°C° 0 mm 4 mps 754 mmHg 74%
    03:00 +4°C° 0 mm 4 mps 753 mmHg 76%
    04:00 +4°C° 0 mm 4 mps 753 mmHg 78%
    05:00 +3°C° 0 mm 4 mps 752 mmHg 79%
    06:00 +3°C° 0 mm 4 mps 752 mmHg 80%
    07:00 +3°C° 0 mm 4 mps 752 mmHg 82%
    08:00 +4°C° 0 mm 4 mps 751 mmHg 76%
    09:00 +6°C° 0 mm 4 mps 751 mmHg 70%
    10:00 +7°C° 0 mm 4 mps 751 mmHg 65%
    11:00 +7°C° 0 mm 4 mps 751 mmHg 65%
    12:00 +8°C° 0 mm 4 mps 750 mmHg 65%
    13:00 +9°C° 0 mm 3 mps 750 mmHg 65%
    14:00 +9°C° 0 mm 3 mps 750 mmHg 69%
    15:00 +9°C° 0 mm 3 mps 750 mmHg 73%
    16:00 +9°C° 0 mm 3 mps 749 mmHg 76%
    17:00 +8°C° 0 mm 3 mps 750 mmHg 79%
    18:00 +8°C° 0 mm 3 mps 750 mmHg 81%
    19:00 +7°C° 0 mm 3 mps 750 mmHg 84%
    20:00 +7°C° 0 mm 3 mps 750 mmHg 85%
    21:00 +5°C° 0 mm 3 mps 750 mmHg 86%
    22:00 +5°C° 0 mm 3 mps 750 mmHg 86%
    23:00 +5°C° 0 mm 3 mps 750 mmHg 86%

    26 November, Sunday

    Time Temperature Precipitation Wind Pressure Humidity
    00:00 +5°C° 0 mm 4 mps 750 mmHg 85%
    01:00 +4°C° 0 mm 4 mps 750 mmHg 85%
    02:00 +4°C° 0 mm 4 mps 750 mmHg 83%
    03:00 +4°C° 0 mm 4 mps 750 mmHg 81%
    04:00 +3°C° 0 mm 4 mps 751 mmHg 80%
    05:00 +2°C° 0 mm 5 mps 751 mmHg 77%
    06:00 +2°C° 0 mm 5 mps 752 mmHg 73%
    07:00 +1°C° 0 mm 6 mps 752 mmHg 70%
    08:00 +2°C° 0 mm 6 mps 753 mmHg 64%
    09:00 +3°C° 0 mm 6 mps 753 mmHg 59%
    10:00 +3°C° 0 mm 7 mps 753 mmHg 53%
    11:00 +3°C° 0 mm 7 mps 753 mmHg 50%
    12:00 +3°C° 0 mm 7 mps 753 mmHg 46%
    13:00 +2°C° 0 mm 8 mps 753 mmHg 43%
    14:00 +2°C° 0 mm 7 mps 754 mmHg 44%
    15:00 +2°C° 0 mm 7 mps 754 mmHg 45%
    16:00 0°C° 0 mm 7 mps 755 mmHg 45%
    17:00 -1°C° 0 mm 7 mps 756 mmHg 49%
    18:00 -2°C° 0 mm 7 mps 757 mmHg 52%
    19:00 -2°C° 0 mm 6 mps 758 mmHg 55%
    20:00 -3°C° 0 mm 6 mps 758 mmHg 56%
    21:00 -2°C° 0 mm 5 mps 758 mmHg 57%
    22:00 -4°C° 0 mm 5 mps 759 mmHg 58%
    23:00 -4°C° 0 mm 5 mps 759 mmHg 58%

    27 November, Monday

    Time Temperature Precipitation Wind Pressure Humidity
    00:00 -3°C° 0 mm 4 mps 759 mmHg 59%
    01:00 -3°C° 0 mm 4 mps 759 mmHg 60%
    02:00 -3°C° 0 mm 4 mps 759 mmHg 60%
    03:00 -3°C° 0 mm 4 mps 760 mmHg 61%
    04:00 -3°C° 0 mm 4 mps 760 mmHg 61%
    05:00 -2°C° 0 mm 3 mps 760 mmHg 61%
    06:00 -2°C° 0 mm 3 mps 761 mmHg 61%
    07:00 -2°C° 0 mm 3 mps 761 mmHg 61%
    08:00 0°C° 0 mm 3 mps 761 mmHg 57%
    09:00 +1°C° 0 mm 3 mps 762 mmHg 52%
    10:00 +2°C° 0 mm 3 mps 762 mmHg 47%
    11:00 +3°C° 0 mm 3 mps 761 mmHg 44%
    12:00 +5°C° 0 mm 3 mps 761 mmHg 41%
    13:00 +7°C° 0 mm 3 mps 760 mmHg 39%
    14:00 +7°C° 0 mm 3 mps 760 mmHg 42%
    15:00 +5°C° 0 mm 3 mps 760 mmHg 45%
    16:00 +5°C° 0 mm 3 mps 760 mmHg 48%
    17:00 +4°C° 0 mm 3 mps 760 mmHg 52%
    18:00 +3°C° 0 mm 3 mps 761 mmHg 56%
    19:00 +2°C° 0 mm 3 mps 761 mmHg 60%
    20:00 +2°C° 0 mm 3 mps 761 mmHg 62%
    21:00 +2°C° 0 mm 3 mps 761 mmHg 63%
    22:00 +2°C° 0 mm 3 mps 761 mmHg 65%
    23:00 +2°C° 0 mm 3 mps 761 mmHg 66%
    Show more